When you browse on this site, cookies collect data to enhance your experience and personalize the content and advertising you see.
Visit our Privacy Policy to learn more. By continuing to use the site, you agree to this use of cookies and data.
  • în România
  • Lista ţărilor
  • Pe 7 zile
  • Temperatura apei
  • Hartă satelitară
  • Meteo pe hartă
  • Widget-uri
  • user-avatar
    Intrare

    Meteo pe oră la San Cristóbal

    Astăzi, 24 Februarie, Duminică

    Timp Temperatura Precipitaţii Vânt Presiune Umiditate
    00:00 +19°C° 0.5 mm 0 m/s 672 mmHg 80%
    01:00 +19°C° 0.5 mm 0 m/s 672 mmHg 83%
    02:00 +19°C° 0.3 mm 0 m/s 672 mmHg 83%
    03:00 +19°C° 0.3 mm 0 m/s 672 mmHg 84%
    04:00 +19°C° 0.3 mm 0 m/s 672 mmHg 85%
    05:00 +19°C° 0.1 mm 0 m/s 672 mmHg 84%
    06:00 +19°C° 0.1 mm 0 m/s 673 mmHg 83%
    07:00 +19°C° 0.1 mm 0 m/s 673 mmHg 82%
    08:00 +23°C° 0 mm 1 m/s 674 mmHg 71%
    09:00 +25°C° 0 mm 1 m/s 674 mmHg 60%
    10:00 +27°C° 0 mm 2 m/s 675 mmHg 50%
    11:00 +29°C° 0 mm 2 m/s 675 mmHg 42%
    12:00 +30°C° 0 mm 2 m/s 674 mmHg 34%
    13:00 +32°C° 0 mm 2 m/s 674 mmHg 27%
    14:00 +32°C° 0 mm 2 m/s 673 mmHg 26%
    15:00 +31°C° 0 mm 1 m/s 672 mmHg 26%
    16:00 +31°C° 0 mm 1 m/s 672 mmHg 25%
    17:00 +28°C° 0 mm 1 m/s 671 mmHg 34%
    18:00 +25°C° 0 mm 1 m/s 671 mmHg 42%
    19:00 +22°C° 0 mm 1 m/s 671 mmHg 50%
    20:00 +21°C° 0 mm 1 m/s 671 mmHg 52%
    21:00 +21°C° 0 mm 1 m/s 672 mmHg 54%
    22:00 +20°C° 0 mm 1 m/s 672 mmHg 56%
    23:00 +20°C° 0 mm 1 m/s 672 mmHg 56%

    Mâine, 25 Februarie, Luni

    Timp Temperatura Precipitaţii Vânt Presiune Umiditate
    00:00 +20°C° 0 mm 1 m/s 672 mmHg 55%
    01:00 +20°C° 0 mm 1 m/s 672 mmHg 55%
    02:00 +19°C° 0 mm 1 m/s 671 mmHg 55%
    03:00 +19°C° 0 mm 1 m/s 671 mmHg 56%
    04:00 +18°C° 0 mm 1 m/s 671 mmHg 56%
    05:00 +19°C° 0 mm 1 m/s 672 mmHg 53%
    06:00 +20°C° 0 mm 1 m/s 672 mmHg 49%
    07:00 +20°C° 0 mm 1 m/s 673 mmHg 45%
    08:00 +23°C° 0 mm 1 m/s 674 mmHg 42%
    09:00 +26°C° 0 mm 1 m/s 675 mmHg 38%
    10:00 +29°C° 0 mm 2 m/s 676 mmHg 35%
    11:00 +30°C° 0 mm 2 m/s 675 mmHg 31%
    12:00 +31°C° 0 mm 2 m/s 674 mmHg 28%
    13:00 +32°C° 0 mm 2 m/s 674 mmHg 25%
    14:00 +32°C° 0 mm 2 m/s 673 mmHg 25%
    15:00 +31°C° 0 mm 1 m/s 672 mmHg 25%
    16:00 +31°C° 0 mm 1 m/s 672 mmHg 25%
    17:00 +28°C° 0 mm 1 m/s 671 mmHg 34%
    18:00 +25°C° 0 mm 1 m/s 671 mmHg 43%
    19:00 +22°C° 0 mm 1 m/s 671 mmHg 51%
    20:00 +21°C° 0 mm 1 m/s 672 mmHg 54%
    21:00 +21°C° 0 mm 1 m/s 672 mmHg 57%
    22:00 +20°C° 0 mm 1 m/s 673 mmHg 61%
    23:00 +20°C° 0 mm 1 m/s 672 mmHg 61%

    Poimâine, 26 Februarie, Marţi

    Timp Temperatura Precipitaţii Vânt Presiune Umiditate
    00:00 +19°C° 0 mm 1 m/s 672 mmHg 61%
    01:00 +19°C° 0 mm 1 m/s 672 mmHg 62%
    02:00 +19°C° 0 mm 1 m/s 672 mmHg 60%
    03:00 +18°C° 0 mm 1 m/s 671 mmHg 59%
    04:00 +18°C° 0 mm 1 m/s 671 mmHg 57%
    05:00 +19°C° 0 mm 1 m/s 672 mmHg 54%
    06:00 +20°C° 0 mm 1 m/s 673 mmHg 50%
    07:00 +20°C° 0 mm 1 m/s 673 mmHg 47%
    08:00 +23°C° 0 mm 1 m/s 674 mmHg 43%
    09:00 +26°C° 0 mm 2 m/s 675 mmHg 38%
    10:00 +29°C° 0 mm 2 m/s 676 mmHg 33%
    11:00 +30°C° 0 mm 2 m/s 675 mmHg 30%
    12:00 +31°C° 0 mm 2 m/s 674 mmHg 26%
    13:00 +34°C° 0 mm 2 m/s 674 mmHg 22%
    14:00 +32°C° 0 mm 2 m/s 673 mmHg 22%
    15:00 +32°C° 0 mm 1 m/s 672 mmHg 23%
    16:00 +31°C° 0 mm 1 m/s 672 mmHg 23%
    17:00 +28°C° 0 mm 1 m/s 671 mmHg 32%
    18:00 +25°C° 0 mm 1 m/s 671 mmHg 40%
    19:00 +22°C° 0 mm 1 m/s 671 mmHg 48%
    20:00 +22°C° 0 mm 1 m/s 672 mmHg 51%
    21:00 +21°C° 0 mm 1 m/s 672 mmHg 53%
    22:00 +20°C° 0 mm 1 m/s 672 mmHg 56%
    23:00 +20°C° 0 mm 1 m/s 672 mmHg 57%

    27 Februarie, Miercuri

    Timp Temperatura Precipitaţii Vânt Presiune Umiditate
    00:00 +20°C° 0 mm 1 m/s 672 mmHg 58%
    01:00 +19°C° 0 mm 1 m/s 671 mmHg 59%
    02:00 +19°C° 0 mm 1 m/s 671 mmHg 58%
    03:00 +19°C° 0 mm 1 m/s 671 mmHg 58%
    04:00 +19°C° 0 mm 1 m/s 671 mmHg 58%
    05:00 +20°C° 0 mm 1 m/s 672 mmHg 56%
    06:00 +20°C° 0 mm 1 m/s 672 mmHg 54%
    07:00 +21°C° 0 mm 1 m/s 673 mmHg 52%
    08:00 +23°C° 0 mm 1 m/s 674 mmHg 45%
    09:00 +26°C° 0 mm 2 m/s 674 mmHg 38%
    10:00 +29°C° 0 mm 2 m/s 675 mmHg 31%
    11:00 +30°C° 0 mm 2 m/s 674 mmHg 29%
    12:00 +32°C° 0 mm 2 m/s 674 mmHg 26%
    13:00 +34°C° 0 mm 2 m/s 673 mmHg 23%
    14:00 +34°C° 0 mm 2 m/s 673 mmHg 24%
    15:00 +32°C° 0 mm 1 m/s 672 mmHg 24%
    16:00 +32°C° 0 mm 1 m/s 671 mmHg 24%
    17:00 +29°C° 0 mm 1 m/s 671 mmHg 30%
    18:00 +26°C° 0 mm 1 m/s 671 mmHg 37%
    19:00 +20°C° 0 mm 0 m/s 671 mmHg 43%
    20:00 +22°C° 0 mm 1 m/s 671 mmHg 44%
    21:00 +22°C° 0 mm 1 m/s 672 mmHg 45%
    22:00 +21°C° 0 mm 1 m/s 672 mmHg 45%
    23:00 +21°C° 0 mm 1 m/s 672 mmHg 47%

    28 Februarie, Joi

    Timp Temperatura Precipitaţii Vânt Presiune Umiditate
    00:00 +21°C° 0 mm 1 m/s 671 mmHg 48%
    01:00 +21°C° 0 mm 1 m/s 671 mmHg 49%
    02:00 +21°C° 0.1 mm 1 m/s 671 mmHg 51%
    03:00 +20°C° 0.1 mm 1 m/s 671 mmHg 52%
    04:00 +20°C° 0.1 mm 1 m/s 671 mmHg 54%
    05:00 +21°C° 0.2 mm 1 m/s 672 mmHg 56%
    06:00 +22°C° 0.2 mm 1 m/s 672 mmHg 58%
    07:00 +22°C° 0.2 mm 1 m/s 673 mmHg 60%
    08:00 +23°C° 0.2 mm 1 m/s 673 mmHg 58%
    09:00 +25°C° 0.2 mm 1 m/s 674 mmHg 57%
    10:00 +26°C° 0.2 mm 2 m/s 674 mmHg 55%
    11:00 +27°C° 0.1 mm 2 m/s 674 mmHg 52%
    12:00 +28°C° 0.1 mm 2 m/s 673 mmHg 50%
    13:00 +29°C° 0.1 mm 1 m/s 673 mmHg 47%
    14:00 +29°C° 0.2 mm 1 m/s 672 mmHg 46%
    15:00 +29°C° 0.2 mm 1 m/s 672 mmHg 46%
    16:00 +29°C° 0.2 mm 1 m/s 671 mmHg 45%
    17:00 +27°C° 0.2 mm 1 m/s 671 mmHg 51%
    18:00 +23°C° 0.2 mm 0 m/s 671 mmHg 57%
    19:00 +21°C° 0.2 mm 0 m/s 671 mmHg 63%
    20:00 +21°C° 0.2 mm 0 m/s 672 mmHg 65%
    21:00 +20°C° 0.2 mm 0 m/s 672 mmHg 66%
    22:00 +20°C° 0.2 mm 0 m/s 672 mmHg 67%
    23:00 +20°C° 0.2 mm 0 m/s 672 mmHg 68%

    1 Martie, Vineri

    Timp Temperatura Precipitaţii Vânt Presiune Umiditate
    00:00 +22°C° 0.2 mm 1 m/s 672 mmHg 69%
    01:00 +21°C° 0.2 mm 1 m/s 671 mmHg 70%
    02:00 +21°C° 0.1 mm 1 m/s 671 mmHg 70%
    03:00 +21°C° 0.1 mm 1 m/s 671 mmHg 70%
    04:00 +21°C° 0.1 mm 1 m/s 671 mmHg 71%
    05:00 +22°C° 0.1 mm 1 m/s 672 mmHg 67%
    06:00 +22°C° 0.1 mm 1 m/s 672 mmHg 64%
    07:00 +23°C° 0.1 mm 1 m/s 673 mmHg 61%
    08:00 +25°C° 0.1 mm 1 m/s 674 mmHg 56%
    09:00 +26°C° 0.1 mm 1 m/s 674 mmHg 52%
    10:00 +28°C° 0.1 mm 2 m/s 675 mmHg 47%
    11:00 +29°C° 0.2 mm 1 m/s 674 mmHg 45%
    12:00 +31°C° 0.2 mm 1 m/s 674 mmHg 42%
    13:00 +32°C° 0.2 mm 1 m/s 673 mmHg 40%
    14:00 +31°C° 0.3 mm 1 m/s 673 mmHg 41%
    15:00 +31°C° 0.3 mm 1 m/s 672 mmHg 42%
    16:00 +30°C° 0.3 mm 1 m/s 671 mmHg 44%
    17:00 +28°C° 0.6 mm 1 m/s 671 mmHg 50%
    18:00 +26°C° 0.6 mm 1 m/s 671 mmHg 56%
    19:00 +22°C° 0.6 mm 0 m/s 671 mmHg 63%
    20:00 +24°C° 1 mm 1 m/s 672 mmHg 65%
    21:00 +23°C° 1 mm 1 m/s 672 mmHg 68%
    22:00 +23°C° 1 mm 1 m/s 673 mmHg 70%
    23:00 +23°C° 1.1 mm 1 m/s 672 mmHg 72%
    Arată mai mult